Regional Weather Roundup
Issued by NWS New Orleans/Baton Rouge, LA

Home | Current Version | Previous Version | Graphics & Text | Print | Product List | Glossary On
Versions: 1 2 3 4 5 6 7 8 9 10 11 12 13 14 15 16 17 18 19 20 21 22 23 24 25 26 27 28 29 30 31 32 33 34 35 36 37 38 39 40 41 42 43 44 45 46 47 48 49 50
878
ASUS44 KLIX 030810
RWRLIX
NEW ORLEANS REGIONAL WEATHER ROUNDUP
NATIONAL WEATHER SERVICE NEW ORLEANS LA
200 AM CST TUE MAR 03 2015

NOTE: "FAIR" INDICATES FEW OR NO CLOUDS BELOW 12,000 FEET WITH NO
      SIGNIFICANT WEATHER AND/OR OBSTRUCTIONS TO VISIBILITY.
      SKY/WX - SKY CONDITION AND SIGNIFICANT WEATHER.
      TMP - AIR TEMPERATURE.     DP    - DEWPOINT TEMPERATURE.
      RH  - RELATIVE HUMIDITY.   PRES  - PRESSURE.
      HI  - HEAT INDEX.          WCI   - WIND CHILL INDEX.

*  THESE STATIONS ARE NOT NWS OR FAA STATIONS AND ARE NOT UNDER
   NWS QUALITY CONTROL.

LAZ038-040-048-061>063-065>067-069-030900-
SOUTHEAST LOUISIANA

CITY           SKY/WX    TMP DP  RH WIND       PRES   REMARKS
N.O. AUDUBON     N/A     67  67 100 MISG        N/A
N.O. INTL ARPT FOG       66  65  96 S5        30.14F VSB 1/16
N.O. LAKEFRONT FOG       64  61  90 SE5       30.14F VSB 1/4
SLIDELL        FOG       65  65 100 SE5       30.14F VSB 1/2
BATON ROUGE    FOG       57  57 100 CALM      30.14F VSB 1/4
BOOTHVILLE     FOG       64  63  96 SE3       30.16F VSB 1/4
BELLE CHASSE   FOG       66  63  90 SE5       30.13F VSB 1/2
BOGALUSA*      FOG       64  62  91 CALM      30.16F VSB 1/4
GALLIANO*      FOG       57  57  99 MISG      30.14F VSB<1/4
NEW ROADS*     FOG       50  50  99 NW3       30.15F VSB 1/4
GONZALES*      FOG       65  65 100 CALM      30.13F VSB<1/4
HAMMOND*       NOT AVBL
HOUMA*         HVY RAIN  66  66 100 CALM      30.13F VSB 1/4
PORT FOURCHON* SUNNY     68  66  94 SE8       30.17F FOG

$$

MSZ070-080>082-030900-
SOUTHERN MISSISSIPPI

CITY           SKY/WX    TMP DP  RH WIND       PRES   REMARKS
MCCOMB         FOG       61  61 100 CALM      30.14F VSB 1/4
GULFPORT       FOG       63  62  97 SE3       30.16F VSB 3/4
BILOXI         FOG       63  63 100 S6        30.15F VSB 3/4
PASCAGOULA     FOG       63  63 100 SE5       30.17F VSB 3/4

$$

COASTAL OBSERVATIONS
LAKE AND NEARSHORE STATIONS

STATION/POSITION TIME  TEMP    WIND        PRES    WAVE
                       AIR SEA DIR/SP/G            HT/PER
                 (UTC) (F)     (DEG/KT/KT) (MB)    (FT/S)
PASCAGOULA       0800   61     120/  2/  5 1021.1
WAVELAND YACHT   0800   61 55  150/  5/  5 1021.0
GRAND ISLE       0800   65 62  110/  3/  4 1021.2
SOUTHWEST PASS   0800   60 47  110/  9/  9 1021.3
NEW CANAL        0800   63     120/  1/  4 1020.9
SHELL BEACH      0800   63 57  130/  6/  6 1020.9

OFFSHORE STATIONS

STATION/POSITION TIME  TEMP    WIND        PRES    WAVE
                       AIR SEA DIR/SP/G            HT/PER
                 (UTC) (F)     (DEG/KT/KT) (MB)    (FT/S)
64 S DAUPHIN ISL 0715   70 71  150/ 10/ 12 1021.8    2/ 7

$$




USA.gov is the U.S. government's official web portal to all federal, state and local government web resources and services.